Precipitable_Water
2.17 2.18 2.21 2.17 2.17 2.15 2.16 2.13 2.16 2.12 2.11 2.06 2.04 2.00 1.97 1.95 1.87 1.79 1.75 1.70 1.71 1.74 1.77 1.79 1.76 1.69 1.60 1.57 1.56 1.57 1.56 1.56 1.47 1.43 1.53 1.55 1.64 1.57 1.55 1.57 1.60 1.59 1.54 1.50 1.52 1.49 1.48 1.49 1.60 1.64 1.57 1.51 1.57 1.56 1.53 1.50 1.56 1.65 1.68 1.70 1.74 1.72 1.71 1.67 1.65 1.65 1.70 1.77 1.80 1.80 1.76 1.69 1.64 1.66 1.71 1.71 1.70 1.67 1.62 1.57 1.51 1.44 1.38 1.36 1.36
2.18 2.20 2.17 2.17 2.20 2.16 2.15 2.10 2.16 2.11 2.17 2.07 2.04 2.00 1.97 1.96 1.91 1.82 1.75 1.69 1.61 1.71 1.81 1.74 1.70 1.64 1.61 1.58 1.58 1.58 1.56 1.46 1.39 1.40 1.48 1.55 1.59 1.62 1.50 1.56 1.63 1.61 1.56 1.54 1.53 1.54 1.52 1.49 1.42 1.46 1.55 1.50 1.46 1.43 1.51 1.49 1.55 1.62 1.65 1.65 1.69 1.71 1.69 1.65 1.62 1.62 1.63 1.70 1.77 1.80 1.80 1.81 1.78 1.73 1.69 1.73 1.80 1.82 1.77 1.69 1.66 1.62 1.58 1.54 1.48
2.17 2.21 2.20 2.22 2.21 2.18 2.13 2.14 2.15 2.20 2.20 2.15 2.10 2.00 1.99 2.00 1.93 1.80 1.78 1.75 1.68 1.91 1.76 1.68 1.65 1.61 1.63 1.56 1.55 1.55 1.56 1.41 1.34 1.35 1.48 1.56 1.63 1.68 1.62 1.58 1.59 1.61 1.59 1.55 1.52 1.57 1.58 1.56 1.48 1.40 1.36 1.37 1.36 1.37 1.42 1.45 1.49 1.58 1.65 1.65 1.65 1.64 1.64 1.65 1.60 1.57 1.58 1.59 1.64 1.71 1.77 1.80 1.83 1.84 1.83 1.78 1.76 1.80 1.86 1.86 1.81 1.76 1.72 1.70 1.71
2.18 2.20 2.22 2.19 2.19 2.16 2.17 2.14 2.12 2.18 2.17 2.17 2.06 2.00 1.97 1.96 1.94 1.85 1.82 1.89 1.83 1.81 1.79 1.66 1.61 1.58 1.59 1.51 1.49 1.51 1.41 1.33 1.35 1.47 1.60 1.60 1.58 1.61 1.73 1.61 1.63 1.59 1.58 1.55 1.53 1.53 1.57 1.59 1.57 1.50 1.38 1.34 1.34 1.34 1.36 1.40 1.44 1.49 1.54 1.61 1.64 1.59 1.60 1.64 1.64 1.58 1.56 1.57 1.56 1.56 1.58 1.68 1.75 1.80 1.83 1.85 1.83 1.77 1.76 1.83 1.89 1.91 1.89 1.86 1.83
2.23 2.22 2.21 2.20 2.16 2.15 2.17 2.15 2.13 2.18 2.19 2.15 2.10 2.05 1.95 1.90 1.87 1.90 1.83 1.79 1.77 1.73 1.71 1.64 1.56 1.56 1.57 1.51 1.46 1.42 1.38 1.34 1.44 1.52 1.50 1.58 1.53 1.67 1.70 1.80 1.69 1.62 1.57 1.54 1.51 1.50 1.53 1.55 1.59 1.57 1.53 1.39 1.31 1.31 1.34 1.37 1.39 1.40 1.46 1.53 1.55 1.59 1.59 1.59 1.60 1.60 1.56 1.55 1.53 1.53 1.50 1.50 1.58 1.66 1.76 1.80 1.83 1.84 1.81 1.78 1.80 1.84 1.88 1.91 1.91
2.29 2.29 2.24 2.23 2.19 2.15 2.11 2.12 2.15 2.16 2.17 2.14 2.06 2.00 1.94 1.85 1.80 1.84 1.77 1.74 1.70 1.70 1.61 1.56 1.51 1.51 1.47 1.49 1.50 1.44 1.43 1.37 1.42 1.52 1.59 1.60 1.71 1.67 1.67 1.64 1.76 1.77 1.60 1.54 1.51 1.48 1.47 1.50 1.53 1.54 1.55 1.55 1.45 1.34 1.33 1.36 1.38 1.39 1.42 1.46 1.49 1.53 1.59 1.62 1.60 1.57 1.57 1.55 1.52 1.52 1.50 1.46 1.47 1.50 1.54 1.63 1.75 1.79 1.81 1.82 1.83 1.82 1.82 1.82 1.86
2.35 2.28 2.23 2.19 2.17 2.17 2.15 2.17 2.14 2.11 2.06 2.09 2.00 1.97 1.94 1.82 1.83 1.79 1.77 1.72 1.67 1.61 1.57 1.49 1.49 1.46 1.43 1.47 1.48 1.47 1.50 1.48 1.52 1.57 1.57 1.67 1.65 1.66 1.67 1.68 1.65 1.76 1.87 1.76 1.46 1.47 1.43 1.45 1.46 1.49 1.50 1.51 1.53 1.51 1.41 1.34 1.37 1.39 1.41 1.43 1.45 1.48 1.54 1.58 1.60 1.57 1.56 1.55 1.54 1.50 1.48 1.47 1.42 1.39 1.44 1.47 1.58 1.66 1.73 1.77 1.79 1.82 1.85 1.84 1.82
2.41 2.40 2.29 2.24 2.19 2.26 2.15 2.22 2.13 2.06 2.04 1.98 1.91 1.86 1.83 1.83 1.87 1.79 1.70 1.61 1.59 1.54 1.51 1.48 1.45 1.41 1.43 1.47 1.50 1.52 1.48 1.53 1.56 1.56 1.64 1.67 1.66 1.64 1.63 1.66 1.65 1.64 1.54 1.74 1.80 1.48 1.39 1.40 1.43 1.44 1.46 1.47 1.47 1.47 1.46 1.43 1.37 1.37 1.39 1.39 1.39 1.44 1.48 1.56 1.57 1.57 1.54 1.55 1.56 1.53 1.45 1.46 1.45 1.42 1.37 1.43 1.48 1.52 1.61 1.68 1.74 1.77 1.80 1.82 1.84
2.42 2.41 2.33 2.22 2.27 2.23 2.25 2.21 2.12 1.99 1.94 1.91 1.85 1.82 1.78 1.79 1.85 1.82 1.80 1.59 1.50 1.45 1.42 1.42 1.39 1.41 1.45 1.42 1.51 1.46 1.52 1.55 1.56 1.64 1.66 1.56 1.59 1.65 1.67 1.65 1.66 1.58 1.52 1.47 1.57 1.68 1.43 1.37 1.36 1.42 1.41 1.43 1.44 1.43 1.41 1.43 1.44 1.42 1.38 1.37 1.36 1.38 1.42 1.52 1.60 1.54 1.56 1.50 1.52 1.56 1.53 1.46 1.44 1.44 1.42 1.39 1.46 1.48 1.53 1.59 1.59 1.68 1.74 1.77 1.79
2.40 2.34 2.34 2.32 2.27 2.23 2.23 2.19 2.08 2.04 1.96 1.90 1.87 1.85 1.83 1.79 1.70 1.82 1.79 1.57 1.47 1.43 1.35 1.38 1.41 1.38 1.43 1.47 1.56 1.53 1.57 1.60 1.63 1.67 1.62 1.62 1.58 1.63 1.63 1.67 1.64 1.63 1.66 1.56 1.56 1.47 1.59 1.37 1.31 1.33 1.37 1.38 1.38 1.40 1.41 1.38 1.38 1.42 1.42 1.39 1.38 1.37 1.36 1.39 1.49 1.56 1.56 1.51 1.47 1.49 1.56 1.52 1.45 1.43 1.43 1.41 1.42 1.47 1.50 1.56 1.56 1.59 1.62 1.68 1.72
2.39 2.35 2.29 2.30 2.28 2.22 2.24 2.13 2.06 1.97 1.98 1.89 1.83 1.83 1.79 1.77 1.67 1.62 1.62 1.58 1.49 1.48 1.44 1.44 1.41 1.45 1.45 1.53 1.57 1.62 1.69 1.69 1.66 1.65 1.67 1.66 1.65 1.63 1.62 1.63 1.68 1.68 1.59 1.55 1.51 1.50 1.45 1.62 1.42 1.29 1.35 1.29 1.34 1.35 1.37 1.39 1.36 1.36 1.37 1.40 1.39 1.40 1.40 1.39 1.38 1.43 1.51 1.52 1.51 1.52 1.56 1.54 1.50 1.41 1.37 1.41 1.44 1.46 1.48 1.55 1.54 1.54 1.58 1.61 1.66
2.35 2.36 2.29 2.27 2.21 2.15 2.20 2.13 2.07 1.93 1.87 1.85 1.79 1.77 1.70 1.67 1.66 1.57 1.50 1.51 1.53 1.51 1.55 1.42 1.44 1.47 1.52 1.57 1.60 1.61 1.60 1.63 1.63 1.65 1.65 1.64 1.64 1.63 1.62 1.60 1.61 1.63 1.64 1.61 1.63 1.55 1.39 1.29 1.44 1.43 1.43 1.42 1.31 1.29 1.32 1.37 1.38 1.38 1.35 1.36 1.42 1.45 1.46 1.45 1.45 1.43 1.45 1.67 1.67 1.68 1.62 1.60 1.54 1.44 1.35 1.37 1.41 1.45 1.50 1.52 1.53 1.53 1.54 1.58 1.63
2.31 2.32 2.28 2.22 2.20 2.26 2.24 2.11 2.03 1.95 1.88 1.81 1.85 1.79 1.71 1.67 1.64 1.59 1.46 1.39 1.39 1.49 1.47 1.42 1.36 1.39 1.48 1.50 1.52 1.58 1.59 1.58 1.60 1.60 1.60 1.64 1.64 1.59 1.65 1.61 1.60 1.56 1.66 1.68 1.61 1.59 1.48 1.31 1.28 1.34 1.37 1.45 1.39 1.30 1.31 1.34 1.37 1.40 1.40 1.37 1.38 1.45 1.51 1.53 1.57 1.52 1.57 1.61 1.67 1.65 1.69 1.63 1.57 1.50 1.45 1.39 1.40 1.43 1.51 1.54 1.52 1.51 1.54 1.56 1.59
2.29 2.32 2.31 2.21 2.17 2.16 2.08 2.05 2.01 1.93 1.89 1.85 1.78 1.73 1.66 1.63 1.59 1.50 1.48 1.38 1.35 1.43 1.45 1.42 1.30 1.31 1.27 1.31 1.45 1.49 1.56 1.57 1.56 1.58 1.61 1.61 1.63 1.60 1.64 1.59 1.59 1.60 1.64 1.62 1.58 1.60 1.54 1.47 1.48 1.53 1.53 1.51 1.55 1.55 1.42 1.35 1.39 1.42 1.44 1.44 1.42 1.41 1.44 1.48 1.51 1.53 1.58 1.62 1.58 1.62 1.72 1.64 1.59 1.57 1.53 1.50 1.44 1.46 1.53 1.55 1.53 1.54 1.54 1.53 1.56
2.30 2.29 2.26 2.25 2.24 2.15 2.07 2.05 1.99 1.93 1.83 1.75 1.71 1.65 1.61 1.58 1.54 1.44 1.36 1.41 1.40 1.45 1.46 1.40 1.22 1.44 1.42 1.37 1.28 1.27 1.38 1.52 1.55 1.58 1.54 1.64 1.58 1.65 1.62 1.65 1.65 1.64 1.66 1.65 1.62 1.63 1.62 1.61 1.57 1.57 1.57 1.59 1.62 1.63 1.69 1.81 1.65 1.50 1.50 1.50 1.49 1.47 1.43 1.38 1.40 1.47 1.51 1.51 1.53 1.57 1.60 1.65 1.66 1.61 1.59 1.57 1.56 1.57 1.58 1.59 1.57 1.57 1.56 1.54 1.60
2.25 2.28 2.27 2.25 2.18 2.11 2.14 2.04 1.96 1.93 1.82 1.71 1.65 1.60 1.58 1.56 1.50 1.47 1.41 1.27 1.32 1.31 1.47 1.45 1.59 1.47 1.23 1.27 1.33 1.36 1.33 1.20 1.43 1.50 1.60 1.59 1.58 1.63 1.64 1.62 1.66 1.65 1.64 1.65 1.65 1.64 1.61 1.65 1.62 1.59 1.58 1.60 1.63 1.63 1.69 1.85 1.66 1.56 1.56 1.57 1.56 1.55 1.48 1.42 1.40 1.41 1.45 1.49 1.52 1.56 1.59 1.60 1.61 1.61 1.60 1.61 1.65 1.68 1.66 1.64 1.61 1.58 1.61 1.63 1.68
2.23 2.26 2.27 2.23 2.19 2.22 2.08 2.04 1.95 1.89 1.83 1.76 1.65 1.62 1.59 1.56 1.50 1.47 1.44 1.33 1.24 1.29 1.34 1.43 1.58 1.65 1.49 1.29 1.29 1.21 1.27 1.44 1.34 1.43 1.57 1.50 1.53 1.53 1.61 1.58 1.61 1.62 1.62 1.62 1.65 1.67 1.67 1.63 1.60 1.62 1.60 1.60 1.58 1.62 1.65 1.72 1.70 1.58 1.58 1.59 1.59 1.55 1.49 1.43 1.44 1.46 1.45 1.46 1.50 1.56 1.58 1.61 1.62 1.62 1.63 1.65 1.67 1.72 1.77 1.74 1.69 1.68 1.68 1.72 1.73
2.23 2.28 2.31 2.22 2.13 2.11 2.06 2.02 1.95 1.87 1.84 1.77 1.70 1.66 1.59 1.54 1.51 1.52 1.44 1.44 1.34 1.30 1.23 1.44 1.51 1.54 1.67 1.71 1.58 1.32 1.28 1.40 1.32 1.26 1.47 1.54 1.59 1.60 1.59 1.58 1.62 1.59 1.63 1.60 1.60 1.64 1.64 1.62 1.61 1.60 1.57 1.58 1.59 1.59 1.61 1.64 1.67 1.71 1.74 1.72 1.58 1.51 1.48 1.47 1.50 1.49 1.50 1.51 1.54 1.57 1.61 1.65 1.70 1.73 1.70 1.70 1.70 1.74 1.80 1.84 1.82 1.80 1.79 1.78 1.75
2.24 2.23 2.18 2.17 2.14 2.10 2.07 2.04 2.01 1.91 1.85 1.80 1.67 1.63 1.59 1.55 1.56 1.53 1.48 1.46 1.49 1.32 1.27 1.31 1.48 1.53 1.53 1.55 1.54 1.59 1.58 1.41 1.29 1.35 1.28 1.46 1.51 1.56 1.58 1.60 1.60 1.59 1.60 1.62 1.62 1.61 1.63 1.64 1.62 1.63 1.60 1.60 1.58 1.62 1.65 1.68 1.68 1.68 1.78 1.78 1.71 1.59 1.52 1.52 1.55 1.56 1.56 1.57 1.59 1.62 1.66 1.70 1.73 1.81 1.82 1.76 1.75 1.76 1.81 1.85 1.89 1.89 1.86 1.82 1.78
2.17 2.18 2.20 2.15 2.15 2.10 2.08 2.03 2.01 1.94 1.85 1.78 1.70 1.63 1.62 1.59 1.59 1.55 1.51 1.50 1.49 1.41 1.38 1.39 1.29 1.38 1.52 1.51 1.51 1.56 1.58 1.56 1.54 1.42 1.40 1.27 1.40 1.51 1.55 1.57 1.60 1.59 1.59 1.60 1.62 1.62 1.62 1.63 1.64 1.61 1.62 1.61 1.60 1.63 1.67 1.70 1.72 1.70 1.66 1.64 1.64 1.61 1.59 1.60 1.60 1.63 1.66 1.64 1.63 1.67 1.70 1.73 1.76 1.76 1.80 1.79 1.74 1.76 1.80 1.86 1.91 1.92 1.90 1.86 1.81
2.18 2.20 2.26 2.17 2.15 2.13 2.08 2.03 1.98 1.94 1.87 1.80 1.74 1.67 1.63 1.59 1.55 1.52 1.47 1.47 1.51 1.53 1.51 1.52 1.47 1.43 1.47 1.49 1.56 1.55 1.56 1.55 1.59 1.54 1.40 1.33 1.31 1.42 1.48 1.58 1.52 1.54 1.56 1.59 1.63 1.65 1.64 1.64 1.64 1.62 1.62 1.60 1.62 1.65 1.66 1.70 1.71 1.69 1.69 1.65 1.57 1.55 1.59 1.62 1.65 1.67 1.70 1.69 1.66 1.67 1.70 1.72 1.73 1.78 1.81 1.81 1.78 1.77 1.76 1.78 1.80 1.82 1.82 1.82 1.80
2.13 2.15 2.17 2.23 2.19 2.13 2.08 2.03 1.97 1.96 1.88 1.81 1.75 1.67 1.61 1.60 1.59 1.54 1.53 1.50 1.53 1.54 1.53 1.56 1.59 1.62 1.57 1.49 1.46 1.50 1.51 1.54 1.52 1.49 1.48 1.45 1.27 1.28 1.41 1.43 1.39 1.56 1.61 1.52 1.54 1.61 1.63 1.64 1.63 1.60 1.62 1.63 1.64 1.65 1.64 1.65 1.66 1.66 1.65 1.61 1.56 1.54 1.53 1.55 1.56 1.59 1.60 1.62 1.61 1.59 1.61 1.63 1.67 1.73 1.75 1.74 1.72 1.71 1.71 1.71 1.72 1.75 1.79 1.83 1.83
2.14 2.11 2.17 2.25 2.20 2.15 2.08 2.01 2.00 1.98 1.89 1.83 1.73 1.67 1.63 1.62 1.62 1.58 1.53 1.51 1.52 1.55 1.55 1.58 1.58 1.57 1.58 1.53 1.49 1.44 1.41 1.41 1.45 1.51 1.49 1.44 1.42 1.42 1.47 1.52 1.49 1.40 1.51 1.58 1.55 1.57 1.60 1.63 1.62 1.64 1.66 1.67 1.69 1.69 1.66 1.65 1.63 1.62 1.69 1.66 1.61 1.57 1.56 1.55 1.53 1.50 1.50 1.50 1.54 1.58 1.59 1.61 1.63 1.64 1.66 1.67 1.67 1.69 1.68 1.69 1.70 1.72 1.75 1.76 1.77
2.13 2.07 2.12 2.22 2.21 2.10 2.09 2.04 1.99 1.98 1.90 1.87 1.80 1.71 1.66 1.63 1.62 1.58 1.53 1.53 1.58 1.57 1.55 1.51 1.51 1.54 1.50 1.53 1.50 1.50 1.52 1.47 1.51 1.52 1.47 1.44 1.47 1.45 1.43 1.51 1.45 1.51 1.60 1.57 1.55 1.53 1.55 1.57 1.62 1.63 1.66 1.69 1.68 1.69 1.71 1.69 1.69 1.65 1.64 1.64 1.62 1.60 1.61 1.61 1.58 1.57 1.54 1.53 1.55 1.54 1.55 1.56 1.58 1.62 1.65 1.69 1.70 1.71 1.71 1.71 1.69 1.66 1.64 1.65 1.67
1.96 1.99 2.05 2.21 2.20 2.09 2.07 2.01 1.98 1.98 1.97 1.92 1.88 1.78 1.71 1.63 1.61 1.58 1.55 1.53 1.53 1.55 1.54 1.54 1.54 1.51 1.48 1.51 1.53 1.52 1.47 1.55 1.56 1.54 1.58 1.57 1.51 1.41 1.46 1.54 1.41 1.38 1.57 1.57 1.53 1.56 1.55 1.59 1.62 1.65 1.65 1.63 1.66 1.66 1.68 1.68 1.68 1.71 1.63 1.70 1.61 1.62 1.61 1.60 1.61 1.60 1.60 1.60 1.59 1.57 1.56 1.57 1.60 1.64 1.67 1.69 1.70 1.70 1.68 1.67 1.66 1.64 1.62 1.61 1.61
1.99 2.01 2.15 2.13 2.14 2.10 2.08 2.05 2.04 2.01 1.99 1.97 1.92 1.86 1.77 1.69 1.64 1.59 1.55 1.58 1.60 1.58 1.58 1.58 1.58 1.57 1.59 1.53 1.52 1.53 1.54 1.57 1.57 1.56 1.51 1.47 1.45 1.43 1.44 1.47 1.46 1.39 1.49 1.50 1.54 1.50 1.57 1.60 1.66 1.66 1.63 1.62 1.61 1.63 1.64 1.65 1.69 1.68 1.61 1.63 1.69 1.62 1.60 1.63 1.63 1.64 1.65 1.65 1.65 1.65 1.65 1.65 1.65 1.63 1.62 1.61 1.60 1.59 1.59 1.60 1.61 1.61 1.61 1.60 1.59
2.04 2.09 2.13 2.15 2.11 2.07 2.06 2.05 2.04 2.01 1.97 1.95 1.93 1.87 1.79 1.72 1.69 1.64 1.63 1.62 1.62 1.64 1.59 1.57 1.55 1.55 1.56 1.56 1.56 1.55 1.55 1.59 1.57 1.56 1.57 1.52 1.51 1.51 1.48 1.38 1.40 1.47 1.48 1.51 1.51 1.48 1.48 1.66 1.67 1.66 1.66 1.62 1.62 1.64 1.67 1.67 1.72 1.73 1.63 1.60 1.75 1.72 1.68 1.63 1.66 1.69 1.70 1.72 1.73 1.71 1.70 1.67 1.63 1.60 1.58 1.57 1.57 1.57 1.58 1.58 1.58 1.58 1.58 1.58 1.57
2.01 2.16 2.13 2.13 2.07 2.06 2.04 2.01 2.02 1.98 1.93 1.91 1.87 1.84 1.78 1.69 1.68 1.68 1.62 1.65 1.61 1.59 1.62 1.60 1.56 1.57 1.56 1.57 1.54 1.50 1.52 1.55 1.59 1.60 1.60 1.60 1.60 1.59 1.55 1.48 1.35 1.27 1.40 1.43 1.50 1.52 1.61 1.53 1.69 1.72 1.69 1.63 1.63 1.66 1.70 1.66 1.69 1.67 1.65 1.62 1.70 1.81 1.70 1.67 1.68 1.69 1.69 1.70 1.70 1.69 1.67 1.63 1.61 1.58 1.56 1.54 1.53 1.54 1.55 1.56 1.58 1.60 1.63 1.64 1.65
2.00 2.10 2.06 2.14 2.11 2.07 2.02 2.01 1.97 1.91 1.87 1.85 1.84 1.82 1.78 1.70 1.67 1.67 1.62 1.64 1.64 1.62 1.62 1.60 1.59 1.57 1.54 1.51 1.49 1.49 1.49 1.52 1.55 1.58 1.61 1.64 1.66 1.67 1.64 1.54 1.53 1.38 1.34 1.35 1.41 1.43 1.58 1.58 1.51 1.69 1.69 1.70 1.67 1.66 1.68 1.59 1.65 1.64 1.63 1.63 1.69 1.81 1.80 1.68 1.64 1.65 1.66 1.63 1.62 1.61 1.59 1.58 1.55 1.53 1.51 1.51 1.52 1.57 1.61 1.64 1.67 1.68 1.69 1.70 1.70
1.99 2.09 2.10 2.19 2.10 2.08 2.06 2.02 2.00 1.93 1.85 1.83 1.81 1.81 1.77 1.67 1.64 1.65 1.66 1.67 1.64 1.64 1.63 1.60 1.58 1.56 1.54 1.51 1.49 1.44 1.47 1.45 1.50 1.54 1.55 1.55 1.56 1.57 1.59 1.61 1.58 1.44 1.42 1.34 1.43 1.54 1.58 1.68 1.59 1.66 1.73 1.70 1.70 1.68 1.68 1.60 1.61 1.54 1.57 1.64 1.66 1.74 1.81 1.70 1.62 1.62 1.61 1.58 1.56 1.53 1.53 1.53 1.55 1.56 1.57 1.59 1.61 1.65 1.68 1.70 1.71 1.72 1.72 1.71 1.71
1.96 2.00 2.01 2.04 2.07 2.09 2.07 2.02 1.98 1.94 1.88 1.86 1.85 1.83 1.81 1.67 1.62 1.58 1.60 1.61 1.59 1.59 1.61 1.58 1.57 1.56 1.53 1.50 1.50 1.45 1.46 1.49 1.52 1.54 1.56 1.56 1.55 1.58 1.60 1.64 1.63 1.60 1.53 1.48 1.32 1.60 1.61 1.57 1.67 1.68 1.70 1.70 1.72 1.74 1.71 1.65 1.64 1.52 1.51 1.61 1.66 1.72 1.71 1.67 1.59 1.58 1.58 1.57 1.54 1.53 1.54 1.59 1.65 1.69 1.71 1.72 1.71 1.68 1.67 1.65 1.65 1.67 1.67 1.66 1.65
1.90 1.94 1.97 1.91 2.07 2.10 2.01 2.06 2.02 1.95 1.92 1.89 1.90 1.86 1.82 1.75 1.68 1.60 1.56 1.54 1.51 1.52 1.55 1.58 1.56 1.54 1.52 1.49 1.48 1.46 1.45 1.43 1.46 1.51 1.54 1.56 1.58 1.59 1.59 1.59 1.61 1.63 1.60 1.51 1.42 1.42 1.64 1.56 1.66 1.74 1.73 1.68 1.71 1.69 1.71 1.69 1.72 1.56 1.56 1.59 1.73 1.65 1.62 1.64 1.58 1.58 1.57 1.59 1.59 1.61 1.65 1.70 1.72 1.71 1.70 1.69 1.67 1.65 1.62 1.62 1.64 1.65 1.65 1.65 1.65
1.89 1.89 1.94 1.99 1.98 2.03 2.09 2.06 2.03 2.00 1.97 1.91 1.90 1.88 1.83 1.77 1.75 1.71 1.68 1.62 1.52 1.49 1.51 1.53 1.54 1.53 1.50 1.48 1.47 1.49 1.50 1.44 1.45 1.48 1.47 1.49 1.52 1.49 1.51 1.55 1.58 1.66 1.63 1.54 1.44 1.43 1.58 1.66 1.66 1.72 1.77 1.75 1.68 1.68 1.69 1.70 1.73 1.66 1.62 1.66 1.74 1.69 1.67 1.67 1.73 1.60 1.57 1.58 1.63 1.67 1.70 1.68 1.65 1.63 1.61 1.59 1.60 1.61 1.61 1.61 1.62 1.63 1.62 1.62 1.62
1.90 1.90 1.96 1.97 2.01 2.04 2.03 2.04 2.01 2.01 1.98 1.95 1.92 1.89 1.85 1.81 1.76 1.76 1.74 1.72 1.64 1.52 1.49 1.45 1.45 1.46 1.45 1.45 1.46 1.47 1.50 1.45 1.45 1.45 1.46 1.47 1.48 1.47 1.48 1.49 1.51 1.59 1.68 1.59 1.53 1.48 1.43 1.65 1.58 1.69 1.74 1.77 1.63 1.79 1.67 1.65 1.72 1.78 1.68 1.66 1.74 1.79 1.76 1.79 1.81 1.84 1.66 1.60 1.62 1.66 1.66 1.62 1.57 1.54 1.52 1.53 1.56 1.58 1.58 1.58 1.57 1.57 1.56 1.56 1.56
1.92 1.91 1.96 2.00 2.03 2.00 2.02 2.02 2.01 1.99 2.00 1.97 1.97 1.94 1.90 1.86 1.81 1.78 1.78 1.76 1.73 1.65 1.54 1.47 1.46 1.45 1.41 1.41 1.42 1.43 1.43 1.38 1.38 1.41 1.49 1.52 1.53 1.52 1.50 1.53 1.53 1.57 1.64 1.67 1.58 1.49 1.47 1.52 1.60 1.64 1.70 1.71 1.64 1.70 1.76 1.75 1.77 1.84 1.79 1.73 1.76 1.83 1.81 1.85 1.85 1.90 1.86 1.69 1.61 1.62 1.58 1.54 1.52 1.51 1.50 1.52 1.53 1.53 1.54 1.53 1.53 1.53 1.53 1.54 1.54
1.87 1.92 1.95 1.96 1.94 1.94 1.97 1.96 1.98 1.99 1.99 1.98 1.98 1.95 1.92 1.89 1.85 1.81 1.82 1.82 1.80 1.76 1.72 1.67 1.59 1.52 1.45 1.41 1.40 1.41 1.39 1.32 1.31 1.37 1.52 1.57 1.55 1.53 1.51 1.53 1.54 1.57 1.64 1.68 1.69 1.56 1.53 1.47 1.59 1.57 1.62 1.71 1.75 1.65 1.83 1.87 1.78 1.82 1.79 1.79 1.83 1.84 1.87 1.78 1.81 1.85 1.90 1.77 1.64 1.56 1.52 1.48 1.49 1.50 1.51 1.53 1.52 1.51 1.50 1.49 1.50 1.50 1.50 1.50 1.51
1.88 1.91 1.96 2.00 1.95 2.00 1.97 1.93 1.93 1.93 1.95 1.98 1.97 1.96 1.95 1.93 1.89 1.85 1.81 1.80 1.80 1.80 1.78 1.74 1.67 1.61 1.56 1.47 1.43 1.41 1.37 1.29 1.28 1.28 1.43 1.54 1.57 1.56 1.53 1.55 1.54 1.55 1.58 1.61 1.65 1.66 1.55 1.46 1.50 1.68 1.75 1.69 1.77 1.85 1.86 1.84 1.78 1.80 1.83 1.69 1.69 1.72 1.82 1.82 1.74 1.70 1.79 1.76 1.62 1.53 1.48 1.48 1.50 1.51 1.54 1.55 1.54 1.52 1.50 1.49 1.49 1.49 1.49 1.48 1.48
1.90 1.93 1.94 1.98 1.99 1.93 2.01 1.96 1.96 1.96 1.95 1.95 1.94 1.93 1.94 1.95 1.94 1.92 1.90 1.86 1.84 1.81 1.78 1.76 1.73 1.67 1.59 1.55 1.53 1.49 1.40 1.29 1.23 1.24 1.36 1.49 1.55 1.54 1.53 1.53 1.54 1.55 1.54 1.58 1.62 1.65 1.61 1.54 1.50 1.50 1.64 1.62 1.65 1.67 1.77 1.82 1.68 1.61 1.69 1.72 1.78 1.81 1.77 1.70 1.67 1.69 1.80 1.72 1.68 1.60 1.54 1.56 1.54 1.55 1.58 1.58 1.57 1.54 1.52 1.50 1.49 1.49 1.48 1.48 1.47
1.87 1.90 1.95 1.95 1.98 1.95 1.97 1.95 1.99 1.95 1.96 1.96 1.94 1.93 1.91 1.91 1.90 1.88 1.87 1.86 1.85 1.83 1.82 1.80 1.80 1.80 1.77 1.72 1.66 1.59 1.52 1.44 1.34 1.28 1.30 1.37 1.41 1.49 1.54 1.56 1.56 1.53 1.52 1.53 1.56 1.55 1.54 1.52 1.52 1.53 1.52 1.62 1.65 1.57 1.74 1.76 1.71 1.67 1.72 1.70 1.67 1.67 1.68 1.67 1.62 1.64 1.65 1.68 1.71 1.68 1.66 1.64 1.60 1.60 1.60 1.61 1.59 1.57 1.54 1.52 1.51 1.50 1.50 1.49 1.51
1.78 1.83 1.88 1.91 1.92 1.97 1.96 1.96 1.99 1.99 1.97 1.97 1.97 1.98 1.98 1.97 1.93 1.89 1.87 1.84 1.83 1.83 1.85 1.86 1.86 1.86 1.86 1.86 1.84 1.81 1.75 1.69 1.59 1.51 1.45 1.39 1.40 1.39 1.47 1.52 1.54 1.53 1.50 1.51 1.51 1.49 1.49 1.49 1.48 1.48 1.53 1.52 1.58 1.66 1.75 1.80 1.67 1.62 1.68 1.68 1.66 1.64 1.66 1.71 1.55 1.55 1.62 1.61 1.66 1.73 1.74 1.71 1.72 1.72 1.71 1.67 1.64 1.62 1.60 1.59 1.56 1.55 1.55 1.57 1.56
1.66 1.73 1.79 1.84 1.88 1.90 1.93 1.95 1.96 1.98 1.95 1.90 1.88 1.87 1.88 1.91 1.95 1.92 1.89 1.86 1.84 1.84 1.84 1.85 1.88 1.89 1.90 1.92 1.92 1.91 1.92 1.90 1.87 1.81 1.72 1.65 1.54 1.46 1.46 1.49 1.52 1.53 1.52 1.51 1.50 1.48 1.46 1.45 1.45 1.50 1.50 1.50 1.54 1.58 1.58 1.53 1.57 1.51 1.64 1.67 1.59 1.67 1.64 1.62 1.65 1.67 1.64 1.59 1.62 1.65 1.73 1.81 1.73 1.72 1.77 1.72 1.72 1.68 1.66 1.63 1.63 1.61 1.60 1.60 1.61
1.60 1.66 1.70 1.77 1.82 1.83 1.84 1.86 1.89 1.89 1.87 1.85 1.84 1.83 1.85 1.87 1.88 1.86 1.86 1.88 1.89 1.89 1.87 1.87 1.90 1.92 1.93 1.95 1.97 1.97 1.95 1.95 1.93 1.89 1.84 1.79 1.75 1.68 1.61 1.61 1.55 1.51 1.52 1.52 1.49 1.47 1.45 1.42 1.39 1.39 1.41 1.41 1.47 1.56 1.54 1.58 1.67 1.66 1.57 1.60 1.61 1.61 1.61 1.55 1.67 1.80 1.76 1.70 1.65 1.54 1.59 1.81 1.84 1.81 1.82 1.80 1.85 1.87 1.76 1.71 1.64 1.65 1.66 1.67 1.69
1.52 1.58 1.63 1.64 1.68 1.74 1.72 1.75 1.78 1.78 1.78 1.76 1.75 1.76 1.77 1.79 1.83 1.84 1.83 1.85 1.87 1.85 1.83 1.82 1.81 1.85 1.90 1.93 1.95 1.95 1.95 1.93 1.92 1.89 1.88 1.86 1.83 1.80 1.75 1.70 1.71 1.66 1.55 1.49 1.47 1.50 1.46 1.42 1.44 1.40 1.35 1.37 1.45 1.53 1.58 1.64 1.66 1.62 1.58 1.55 1.58 1.66 1.55 1.49 1.45 1.65 1.86 1.74 1.69 1.60 1.66 1.81 1.84 1.75 1.72 1.70 1.74 1.89 1.91 1.82 1.88 1.80 1.78 1.76 1.72
1.44 1.49 1.50 1.54 1.59 1.61 1.63 1.67 1.67 1.69 1.72 1.75 1.74 1.74 1.75 1.75 1.78 1.81 1.84 1.83 1.83 1.83 1.83 1.81 1.80 1.79 1.79 1.82 1.85 1.88 1.89 1.89 1.89 1.90 1.89 1.86 1.84 1.83 1.81 1.79 1.76 1.74 1.69 1.60 1.56 1.53 1.49 1.43 1.41 1.42 1.40 1.32 1.37 1.51 1.52 1.55 1.64 1.69 1.63 1.57 1.58 1.59 1.57 1.47 1.50 1.50 1.70 1.82 1.70 1.63 1.62 1.86 1.85 1.78 1.70 1.67 1.73 1.77 1.77 1.80 1.76 1.76 1.75 1.73 1.66
1.43 1.39 1.41 1.45 1.49 1.54 1.55 1.54 1.54 1.58 1.60 1.67 1.69 1.72 1.74 1.76 1.80 1.83 1.84 1.86 1.82 1.81 1.80 1.79 1.79 1.77 1.77 1.77 1.79 1.84 1.87 1.88 1.88 1.86 1.87 1.90 1.92 1.90 1.87 1.83 1.79 1.77 1.76 1.73 1.67 1.58 1.56 1.55 1.47 1.44 1.44 1.42 1.38 1.40 1.53 1.57 1.65 1.54 1.58 1.59 1.58 1.61 1.57 1.50 1.58 1.63 1.71 1.88 1.86 1.75 1.63 1.74 1.90 1.79 1.66 1.63 1.69 1.77 1.78 1.77 1.73 1.71 1.70 1.65 1.59
1.42 1.40 1.41 1.43 1.49 1.50 1.50 1.51 1.52 1.54 1.55 1.60 1.61 1.64 1.67 1.70 1.73 1.76 1.75 1.74 1.76 1.76 1.74 1.75 1.74 1.73 1.73 1.69 1.69 1.70 1.76 1.78 1.79 1.79 1.81 1.86 1.89 1.90 1.85 1.86 1.84 1.81 1.78 1.75 1.74 1.72 1.65 1.55 1.50 1.44 1.51 1.58 1.47 1.46 1.56 1.65 1.60 1.49 1.52 1.61 1.67 1.62 1.58 1.52 1.59 1.65 1.87 2.05 1.84 1.71 1.58 1.65 1.70 1.69 1.67 1.64 1.76 1.80 1.77 1.76 1.74 1.69 1.66 1.62 1.63
1.47 1.44 1.48 1.49 1.53 1.54 1.53 1.53 1.52 1.51 1.55 1.59 1.59 1.59 1.62 1.64 1.65 1.67 1.68 1.68 1.68 1.69 1.71 1.73 1.73 1.73 1.73 1.72 1.71 1.71 1.75 1.77 1.80 1.82 1.82 1.85 1.88 1.88 1.86 1.83 1.82 1.81 1.79 1.78 1.77 1.75 1.74 1.71 1.60 1.52 1.52 1.59 1.60 1.60 1.62 1.63 1.64 1.62 1.59 1.66 1.70 1.69 1.69 1.77 1.76 1.75 1.69 1.88 1.89 1.73 1.44 1.58 1.62 1.58 1.64 1.68 1.74 1.76 1.79 1.79 1.74 1.72 1.71 1.70 1.66
1.55 1.56 1.58 1.57 1.54 1.55 1.58 1.58 1.56 1.54 1.60 1.62 1.61 1.61 1.62 1.63 1.66 1.68 1.68 1.66 1.67 1.69 1.71 1.74 1.75 1.76 1.76 1.75 1.74 1.73 1.74 1.76 1.81 1.82 1.81 1.81 1.76 1.74 1.76 1.77 1.77 1.80 1.79 1.83 1.88 1.90 1.87 1.82 1.77 1.71 1.66 1.59 1.59 1.62 1.68 1.69 1.68 1.72 1.74 1.69 1.68 1.73 1.69 1.59 1.48 1.56 1.52 1.68 1.84 1.70 1.49 1.48 1.59 1.51 1.56 1.72 1.77 1.71 1.77 1.76 1.80 1.75 1.74 1.71 1.68
1.54 1.51 1.54 1.56 1.57 1.56 1.57 1.59 1.57 1.56 1.58 1.60 1.59 1.59 1.59 1.62 1.64 1.64 1.62 1.60 1.57 1.56 1.56 1.61 1.66 1.70 1.70 1.69 1.67 1.64 1.63 1.62 1.65 1.66 1.65 1.64 1.60 1.57 1.56 1.58 1.63 1.65 1.67 1.83 1.88 1.86 1.88 1.89 1.86 1.84 1.83 1.78 1.72 1.64 1.63 1.69 1.71 1.67 1.69 1.58 1.47 1.65 1.52 1.41 1.43 1.44 1.45 1.59 1.67 1.83 1.68 1.48 1.54 1.53 1.51 1.63 1.68 1.64 1.63 1.68 1.80 1.81 1.75 1.73 1.71
1.55 1.53 1.54 1.55 1.56 1.54 1.54 1.56 1.57 1.54 1.54 1.60 1.59 1.59 1.59 1.60 1.62 1.59 1.56 1.49 1.42 1.40 1.39 1.42 1.45 1.48 1.50 1.51 1.51 1.51 1.51 1.53 1.59 1.62 1.64 1.65 1.60 1.58 1.57 1.54 1.53 1.51 1.53 1.62 1.69 1.79 1.88 1.89 1.89 1.86 1.85 1.85 1.83 1.80 1.74 1.69 1.69 1.69 1.63 1.49 1.53 1.62 1.55 1.46 1.31 1.35 1.45 1.53 1.55 1.82 1.76 1.52 1.58 1.60 1.55 1.63 1.69 1.64 1.65 1.71 1.75 1.81 1.78 1.78 1.78
1.60 1.56 1.53 1.51 1.52 1.54 1.54 1.51 1.52 1.51 1.53 1.59 1.60 1.59 1.58 1.57 1.55 1.53 1.48 1.43 1.38 1.37 1.35 1.36 1.42 1.45 1.46 1.48 1.47 1.48 1.48 1.49 1.53 1.58 1.61 1.64 1.60 1.58 1.56 1.54 1.50 1.49 1.54 1.63 1.64 1.62 1.70 1.79 1.87 1.92 1.87 1.86 1.88 1.88 1.87 1.82 1.75 1.70 1.67 1.62 1.63 1.57 1.49 1.47 1.49 1.48 1.40 1.44 1.61 1.89 1.60 1.62 1.58 1.65 1.66 1.54 1.44 1.59 1.69 1.74 1.81 1.83 1.84 1.87 1.84
Wind_Speed
12 12 12 12 12 12 12 11 11 10 9 9 8 7 7 7 8 7 6 5 5 4 3 3 3 3 4 3 4 4 4 5 5 6 6 6 6 6 7 7 7 7 8 8 8 9 9 9 9 9 10 10 10 10 11 11 11 12 12 12 12 13 13 14 14 14 14 14 14 14 14 14 14 13 13 13 13 13 13 12 12 12 12 11 11
12 12 12 12 12 12 12 12 12 11 10 9 8 8 8 7 8 8 6 6 5 5 4 4 4 4 4 4 4 5 5 5 6 6 6 6 6 6 7 7 7 7 7 8 8 8 9 9 9 9 9 9 9 10 10 10 11 11 11 12 12 12 13 13 14 14 14 14 14 14 14 13 13 13 13 13 13 12 12 12 12 12 12 12 11
11 12 12 12 12 12 12 11 11 11 11 11 9 9 8 8 8 8 7 6 6 6 5 5 5 5 5 5 5 5 5 6 6 7 6 6 6 6 6 6 6 7 7 8 8 8 8 8 8 8 9 9 9 9 9 9 10 10 10 10 11 11 11 12 13 13 13 13 13 13 13 13 12 12 12 12 12 12 12 12 12 12 12 11 11
12 12 12 12 12 12 12 11 11 11 11 11 11 10 9 9 8 8 8 7 7 6 6 6 5 5 5 5 5 5 6 7 7 7 7 6 6 6 6 6 6 6 7 7 7 7 8 8 8 8 8 8 8 8 8 8 9 9 9 9 10 10 10 11 11 12 12 12 12 12 12 12 11 11 11 11 11 11 11 11 11 11 11 10 10
12 12 12 12 12 12 11 12 12 11 10 11 11 11 10 9 9 8 8 8 7 7 7 7 6 6 6 6 6 6 7 7 7 7 7 6 6 6 6 6 6 6 6 6 6 7 7 7 7 7 7 7 7 7 7 8 8 8 8 8 9 9 9 9 10 10 10 11 11 11 11 11 10 10 10 10 10 10 10 10 10 9 9 9 9
12 12 12 12 12 11 11 11 11 11 10 10 10 10 10 9 9 9 8 8 8 8 8 8 7 7 7 7 7 7 7 8 7 7 7 6 6 6 6 5 5 5 5 6 6 6 6 6 7 7 7 7 7 7 7 7 7 7 7 8 8 8 8 8 8 9 9 9 10 10 10 10 9 9 9 9 9 9 9 9 9 8 8 8 8
12 12 12 12 12 12 11 10 10 10 10 10 10 10 10 9 9 9 9 9 9 9 9 8 8 8 7 7 7 8 8 7 7 7 6 6 6 6 5 5 5 5 5 5 5 6 6 6 6 6 6 6 6 6 6 6 6 6 6 7 7 7 7 7 7 7 8 8 8 8 8 9 8 8 8 9 9 8 8 8 8 8 7 7 7
10 10 11 12 12 11 11 10 10 10 10 10 10 10 10 9 9 10 10 10 10 9 9 9 9 8 8 8 8 8 8 7 7 7 6 6 6 5 5 5 5 5 5 5 5 5 6 6 6 6 6 6 6 6 5 5 5 5 5 5 6 6 6 6 6 6 6 6 7 7 7 7 7 8 8 8 8 8 8 8 7 7 7 6 6
10 9 10 11 11 11 11 10 11 11 11 11 10 10 10 10 10 10 11 11 10 10 10 10 10 9 9 8 8 8 7 7 7 6 6 5 5 5 5 5 5 5 5 5 5 5 6 6 6 6 6 6 6 5 5 5 5 5 5 5 5 5 5 5 5 5 5 5 5 5 6 6 6 7 7 7 7 7 7 7 7 6 6 5 5
10 9 9 10 11 12 11 11 12 12 11 11 10 10 10 10 11 11 11 11 11 11 10 10 10 10 9 9 8 8 7 6 6 6 5 5 5 5 5 5 5 5 5 5 5 5 5 6 6 5 5 5 5 5 5 5 5 5 5 5 4 4 4 4 4 4 4 4 4 4 4 5 5 5 6 6 6 6 6 6 6 6 5 5 4
9 9 9 10 10 12 12 12 12 11 11 11 11 11 11 11 11 11 12 12 11 11 11 11 10 10 10 9 8 7 7 6 6 5 5 5 5 5 5 5 5 5 5 5 5 5 5 5 5 5 5 5 5 5 5 5 5 5 4 4 4 4 4 4 4 4 4 4 4 4 4 4 4 4 4 5 5 5 5 5 5 5 4 4 3
9 9 9 10 11 12 12 12 11 11 10 11 11 11 11 11 11 12 12 12 12 11 11 11 11 10 10 9 8 8 7 6 6 5 5 5 5 5 5 5 5 5 5 5 5 5 5 5 5 5 5 5 5 5 5 5 5 5 4 4 4 4 4 4 4 4 4 4 4 4 4 4 4 4 4 4 4 4 4 4 4 3 3 3 2
10 10 10 11 12 12 12 11 11 11 11 11 11 11 11 12 11 12 12 13 12 12 12 12 11 10 10 9 8 8 7 6 6 6 5 5 5 5 5 5 5 5 5 5 5 5 5 5 5 5 5 5 5 5 5 5 5 5 5 5 5 4 4 4 4 4 4 4 4 4 4 4 4 4 4 4 4 4 4 3 3 2 2 1 1
10 10 10 12 12 12 11 11 11 11 11 11 11 12 12 12 12 12 12 13 12 12 13 12 11 11 10 10 9 8 7 7 6 6 5 5 5 5 5 5 5 5 5 5 5 5 5 5 5 5 5 5 5 5 5 5 5 5 5 5 5 5 5 5 5 5 5 5 5 5 4 4 4 4 4 4 4 4 4 3 3 2 1 0 0
10 11 11 12 13 12 12 12 12 12 12 11 12 12 12 13 13 13 13 13 12 13 14 13 12 11 11 10 9 9 7 7 7 6 6 5 5 5 5 5 5 5 5 5 5 5 5 6 5 5 5 5 5 5 5 5 5 5 6 5 5 5 5 5 5 5 5 5 5 5 5 5 5 4 4 4 4 4 4 3 3 2 1 1 1
11 11 12 13 13 13 12 12 13 13 12 12 12 13 13 13 14 14 14 13 13 13 14 14 12 11 11 10 9 9 8 7 7 6 6 6 5 5 5 5 5 5 5 5 5 5 5 6 6 6 6 5 5 5 5 5 5 6 6 6 6 6 5 5 5 5 5 5 5 5 5 5 5 5 5 5 5 5 4 4 3 3 2 2 2
11 11 12 13 14 14 13 13 13 13 12 12 12 13 13 14 15 15 14 14 13 13 14 14 13 11 11 10 9 9 8 8 7 7 6 6 6 6 5 5 5 5 5 5 5 5 5 6 6 6 6 6 6 6 6 5 5 5 5 6 6 6 6 6 6 5 5 6 5 5 5 5 5 5 5 5 5 5 5 4 4 3 3 3 3
12 12 13 14 14 14 14 14 14 14 13 12 13 13 14 14 15 15 15 14 14 13 14 14 13 12 11 10 9 8 8 8 7 7 6 6 6 6 6 5 5 5 5 5 5 5 5 6 6 6 6 6 6 6 6 6 6 5 5 5 6 6 6 6 6 6 6 6 6 6 6 5 5 5 5 5 5 5 5 5 4 4 3 3 3
12 13 13 14 14 15 15 15 14 14 14 13 13 13 14 14 15 15 15 15 14 14 14 14 13 12 12 11 10 9 8 8 7 7 6 6 6 6 6 6 5 5 5 5 5 5 5 6 6 6 6 6 7 7 6 6 6 6 6 6 6 6 6 6 6 6 6 6 6 6 6 6 6 6 6 6 5 5 5 5 5 4 4 4 4
12 13 14 15 15 16 16 16 15 15 14 14 14 14 14 14 15 16 15 15 15 14 13 13 13 13 12 12 11 10 9 9 8 7 7 7 6 6 6 6 6 6 5 5 6 6 6 6 6 6 6 6 7 7 7 6 6 6 6 6 6 6 6 6 6 6 6 6 6 6 6 6 6 6 6 6 6 5 5 5 5 5 5 5 5
13 14 15 16 17 17 17 17 16 15 15 15 14 14 14 14 15 15 16 16 16 15 13 13 13 13 12 12 12 11 10 10 9 9 8 7 6 6 6 6 6 6 6 6 6 6 6 6 6 6 6 6 7 7 7 7 7 6 6 7 7 6 6 6 6 6 6 7 7 6 6 6 6 6 6 6 6 6 6 5 5 5 5 5 5
13 14 15 16 17 18 18 17 17 16 15 15 15 15 14 15 15 15 16 16 16 15 14 13 12 12 12 12 12 11 11 10 10 10 9 8 8 7 7 6 6 6 6 7 7 7 7 6 6 6 6 6 7 7 7 7 7 6 6 7 7 7 7 7 7 6 7 7 7 6 6 6 6 6 6 6 6 6 6 6 5 5 5 5 5
13 14 15 16 18 19 18 18 17 17 16 16 15 15 15 15 15 15 16 17 16 16 15 14 13 13 12 12 12 12 12 11 11 10 10 9 9 8 8 7 7 7 7 7 7 7 7 7 7 7 7 7 7 7 7 7 7 7 7 7 7 7 7 7 7 7 7 7 7 7 6 6 6 6 6 6 6 6 6 6 6 6 6 6 6
13 14 15 16 18 18 18 18 17 17 17 16 15 15 15 15 15 15 16 17 17 17 16 15 15 14 13 13 12 13 13 12 12 11 11 10 10 9 9 8 7 8 7 7 8 8 8 8 8 8 8 8 8 8 8 8 8 8 8 8 8 8 8 8 7 7 7 7 7 7 7 7 7 6 6 6 6 6 6 6 6 6 6 6 6
14 14 15 16 17 18 18 18 18 18 17 17 16 16 16 15 15 15 16 17 17 17 17 16 15 15 14 14 13 13 13 13 12 12 12 11 10 10 10 9 9 9 8 8 8 8 9 9 8 8 8 8 8 8 8 8 8 9 9 8 8 9 9 8 8 8 8 8 8 7 7 7 7 7 6 6 6 6 6 6 6 6 6 7 7
14 14 15 16 17 18 18 18 18 18 18 17 17 17 16 16 16 16 16 16 17 17 17 17 16 16 15 14 14 13 13 13 13 13 12 12 12 11 11 10 10 10 9 9 9 9 9 9 9 9 9 9 9 9 9 9 9 9 9 9 9 9 9 9 9 9 9 8 8 8 7 7 7 7 7 7 7 7 7 7 7 7 7 7 7
14 14 15 16 17 18 19 19 19 19 19 18 18 17 17 17 16 16 16 16 17 17 17 17 17 16 16 15 15 14 14 14 14 13 13 13 13 12 11 11 11 10 10 10 10 10 10 10 9 9 9 9 9 9 9 9 9 9 9 9 9 10 10 10 9 9 9 9 9 8 8 8 8 7 7 7 7 7 7 7 7 7 8 8 8
13 14 14 15 16 17 19 20 20 19 19 19 19 18 18 18 17 17 17 17 17 17 17 17 17 17 17 16 16 15 15 14 14 14 14 14 13 13 12 12 11 11 11 11 11 10 11 11 10 10 10 10 10 10 10 10 10 10 10 10 10 10 10 10 10 10 9 9 9 9 9 9 8 8 8 8 8 8 8 8 8 8 8 9 9
14 14 14 15 16 18 19 20 20 20 20 20 19 19 19 19 18 18 18 17 17 18 18 17 17 17 17 17 16 16 16 15 15 15 15 14 14 14 13 13 13 12 12 12 12 11 11 11 11 11 11 11 11 11 11 11 11 10 10 10 10 10 10 10 10 10 10 10 10 10 10 9 9 9 9 9 9 9 9 9 9 9 9 10 10
15 15 14 14 16 18 19 20 20 21 20 20 20 20 20 19 19 19 19 19 18 18 18 18 18 17 17 17 17 17 16 16 16 16 15 15 15 15 14 14 14 14 13 13 13 12 12 12 11 11 11 11 11 11 11 11 12 11 11 11 11 11 11 11 11 11 11 11 11 11 10 10 10 10 9 9 9 10 10 10 10 10 10 11 11
17 16 15 15 15 17 19 19 20 21 21 21 21 21 20 20 20 20 20 20 20 19 19 19 18 18 18 18 17 17 17 17 17 16 16 16 16 15 15 15 15 15 15 14 14 14 13 13 12 12 12 12 12 12 12 12 12 12 12 12 11 11 12 12 12 12 12 12 12 11 11 11 11 11 10 10 11 11 11 11 11 11 12 12 12
17 17 16 16 15 16 18 19 20 20 21 21 21 21 21 21 21 20 20 21 21 20 20 19 19 19 19 19 18 18 18 18 18 17 17 17 17 16 16 16 16 16 16 16 16 15 15 15 14 13 13 13 13 13 13 13 13 13 13 12 12 12 12 12 13 13 13 13 13 12 12 12 12 12 12 12 12 12 12 12 12 13 13 14 14
17 17 17 17 16 16 17 18 19 20 20 21 21 21 21 21 21 21 21 21 21 21 21 21 20 20 20 19 19 19 19 19 19 18 18 18 18 18 18 17 17 17 17 17 17 17 16 16 16 15 14 14 14 14 14 14 14 14 14 14 14 14 13 13 13 14 14 14 14 13 13 13 13 13 13 13 13 13 13 13 14 14 15 15 15
17 18 18 17 17 16 16 17 18 19 20 21 21 21 21 22 22 21 21 21 22 21 21 21 21 21 20 20 20 20 19 20 20 20 19 19 19 19 19 19 19 18 18 18 18 18 17 17 17 17 16 15 15 15 15 16 16 15 15 15 15 15 15 14 14 14 15 15 15 15 15 14 14 14 14 14 14 14 14 15 15 15 16 16 17
18 18 19 18 18 17 17 18 18 19 20 20 21 21 22 22 22 22 21 22 22 22 22 22 22 22 21 21 21 21 21 21 21 21 20 20 20 20 20 20 20 20 19 19 19 19 19 18 17 18 17 17 17 17 16 17 17 16 16 16 16 16 16 16 15 15 16 16 16 16 16 16 15 15 15 15 16 16 16 16 16 17 17 18 18
17 19 19 19 19 19 18 19 19 20 20 20 21 22 22 22 22 22 22 22 22 22 22 22 22 23 22 22 22 22 22 22 22 21 21 21 21 21 21 21 21 21 21 20 20 20 20 19 19 19 18 18 18 18 17 17 17 17 17 17 17 17 17 17 17 16 17 17 17 17 17 17 17 17 17 17 17 17 18 18 18 19 19 19 20
17 18 19 20 20 20 19 20 20 20 21 21 21 22 22 22 22 23 22 22 22 22 23 23 23 23 23 23 23 23 23 23 23 22 22 22 22 22 22 22 22 22 22 22 22 21 21 21 21 20 20 19 19 19 19 18 18 18 18 19 19 18 18 18 18 17 17 18 18 18 18 18 18 18 18 19 19 19 19 20 20 20 20 20 21
17 17 18 19 20 20 20 20 20 20 21 21 21 22 22 22 22 23 23 23 23 23 23 23 24 24 24 24 24 24 24 24 23 23 24 24 23 23 23 23 23 23 23 23 23 23 22 22 22 22 22 21 21 21 20 20 20 20 20 20 20 20 19 19 19 18 18 19 19 19 20 20 20 20 20 20 20 20 20 20 20 21 21 21 21
15 17 18 19 19 20 20 20 20 20 21 21 22 22 23 23 23 23 24 24 24 24 24 25 25 25 25 25 25 25 25 25 25 24 25 25 25 25 25 24 24 24 24 24 24 24 24 24 24 24 24 23 23 23 22 22 22 22 22 22 22 21 21 20 20 20 20 20 20 20 21 21 21 21 21 21 21 21 21 21 21 21 21 22 22
14 16 17 18 19 19 20 19 20 20 21 22 22 23 23 24 24 24 24 25 25 25 25 25 26 26 26 26 26 26 26 26 26 26 25 25 25 26 26 26 25 26 25 25 25 25 26 26 26 25 25 25 24 24 24 23 23 24 24 23 23 22 22 22 22 22 21 21 21 21 21 22 22 22 22 22 22 22 22 22 22 22 22 23 23
13 14 16 17 18 19 19 20 20 21 21 22 23 23 24 24 24 25 25 25 25 25 25 26 26 26 26 26 26 27 27 27 27 27 27 27 26 26 26 26 27 27 27 27 27 26 26 27 27 27 26 26 26 26 25 25 25 25 25 25 25 24 24 23 24 24 23 23 22 22 22 22 22 22 22 22 22 23 23 23 23 23 24 25 25
13 14 15 16 17 17 18 19 20 21 21 22 23 23 24 24 24 24 25 25 25 25 25 25 25 26 27 27 27 27 28 28 28 29 29 29 29 29 28 28 28 28 28 28 28 28 28 28 28 28 28 28 27 27 27 27 27 27 26 26 26 26 25 25 25 24 24 24 24 24 24 23 22 22 23 23 23 23 23 24 24 25 25 26 26
13 14 15 15 16 17 17 18 19 20 21 21 22 23 23 24 24 24 24 25 25 25 26 26 26 26 27 27 28 28 29 29 29 29 30 31 32 32 32 31 31 30 30 30 30 30 29 29 29 29 29 29 29 29 28 28 28 28 28 27 27 26 26 26 26 25 25 25 25 25 25 25 24 24 24 24 24 24 24 24 25 25 25 26 27
14 14 15 15 16 17 17 18 19 20 20 21 21 22 23 24 24 23 23 24 24 25 26 26 26 26 27 27 27 28 29 29 29 30 30 31 32 33 34 34 34 34 33 33 32 31 31 31 31 31 31 31 31 30 30 30 29 28 28 29 29 28 27 27 27 26 26 26 26 26 26 25 25 25 25 25 25 26 25 25 25 26 27 27 27
13 14 15 15 16 16 17 18 19 19 20 21 21 22 22 23 23 23 23 23 24 24 25 26 26 26 27 27 27 27 28 29 30 30 30 31 31 32 33 34 35 36 37 37 36 35 34 33 33 33 33 32 32 32 31 31 31 30 29 29 29 29 28 28 28 27 26 26 26 26 26 26 25 25 26 26 26 27 27 26 26 27 28 28 28
14 14 14 15 15 16 16 17 18 19 19 20 20 21 21 22 22 23 23 23 24 24 25 25 25 26 27 27 27 28 28 28 29 29 30 31 31 32 33 34 35 36 36 38 38 38 38 37 36 35 35 34 34 34 33 32 32 32 32 31 30 30 30 29 29 29 28 27 27 27 26 26 26 26 27 27 27 27 27 27 28 28 28 28 28
14 14 14 15 15 16 16 17 17 17 18 18 19 19 20 21 21 22 22 23 23 23 24 25 25 26 26 27 27 28 28 28 29 29 30 30 31 32 32 33 34 35 36 37 38 39 39 39 39 39 37 37 36 36 35 35 34 34 33 33 32 31 31 30 30 30 30 30 29 28 28 27 27 27 27 27 27 27 28 28 28 28 28 28 28
15 15 15 15 15 16 16 17 17 17 17 18 18 19 19 20 20 20 21 22 22 23 24 24 25 25 26 26 27 27 28 29 29 30 30 31 32 33 33 34 35 35 36 37 38 39 40 40 41 40 40 40 39 38 37 37 36 35 35 35 34 33 32 32 31 31 31 31 30 30 29 28 28 28 28 28 27 28 28 28 28 28 28 28 28
16 16 16 16 16 16 17 17 17 18 18 18 18 19 19 19 20 20 21 21 22 23 23 24 24 25 25 26 26 27 27 28 29 30 31 31 32 33 34 35 36 36 37 37 38 39 40 41 42 42 42 42 41 41 40 39 38 37 35 35 35 34 33 33 32 32 32 31 31 30 30 29 29 29 28 28 28 28 28 28 28 27 27 28 27
18 17 17 17 17 17 17 18 18 18 18 18 18 19 19 20 20 20 20 21 22 22 23 23 24 24 25 26 26 27 27 28 29 29 30 31 32 33 34 35 36 37 37 38 38 39 40 41 43 43 43 43 43 43 42 41 41 40 38 37 36 35 34 34 33 33 33 32 31 31 30 30 29 28 28 28 29 28 28 28 27 27 27 27 28
19 19 18 18 18 18 18 18 18 19 19 19 19 19 20 20 20 20 20 21 22 22 22 23 23 24 24 25 26 27 28 28 29 29 30 30 31 32 34 35 37 38 38 38 39 40 40 41 42 43 43 44 44 44 44 43 43 42 41 39 37 36 35 34 33 33 32 32 31 31 30 29 29 28 28 28 28 28 27 28 27 27 27 28 28
Wind_Direction
245 244 244 242 242 240 239 240 238 233 230 231 230 227 224 221 223 222 222 225 223 218 217 210 190 179 173 162 152 147 144 141 138 133 129 123 118 116 114 112 111 110 111 113 115 118 119 118 116 113 110 106 103 101 99 98 98 97 96 96 95 94 93 92 93 94 96 97 98 99 100 102 103 104 105 104 104 104 104 106 108 109 110 111 112
246 244 243 243 241 239 240 240 235 230 227 227 227 225 223 223 222 221 223 225 220 213 208 199 186 178 173 166 156 150 148 147 144 139 135 129 123 121 119 117 116 116 116 117 118 120 121 121 120 117 114 111 108 106 103 102 101 99 98 98 98 97 96 94 93 94 95 97 97 98 99 100 102 103 104 104 104 104 104 105 106 108 109 110 112
248 245 242 242 241 239 237 234 232 231 227 227 227 225 224 223 222 221 222 221 214 208 201 191 183 178 173 167 159 152 150 150 147 142 138 133 128 125 125 124 122 122 122 123 124 123 123 124 123 121 118 115 112 110 108 106 105 104 102 101 101 100 99 97 95 94 95 96 97 98 99 100 101 102 103 104 104 105 105 106 107 109 110 110 112
248 246 243 240 239 237 233 231 232 231 228 227 227 226 224 222 220 218 217 213 205 198 194 189 182 177 172 166 160 155 152 151 148 143 140 137 133 130 129 129 129 129 129 130 130 129 128 127 127 126 123 121 118 115 113 111 109 108 107 106 107 105 103 101 100 98 97 97 98 98 99 100 101 103 105 106 107 108 108 108 109 110 111 111 112
247 246 243 239 236 234 231 231 230 227 225 223 222 221 220 218 215 211 207 201 195 190 188 186 180 175 170 164 158 154 151 149 147 145 143 141 139 135 133 134 136 137 136 136 136 136 134 133 132 132 130 127 125 123 120 117 115 114 113 112 112 111 109 107 105 104 102 100 100 99 100 101 103 104 106 108 109 111 111 111 111 111 112 112 113
247 246 242 237 232 227 227 227 224 220 217 215 214 212 211 209 205 202 197 191 189 188 185 181 176 172 167 162 158 154 151 149 148 147 146 145 143 141 138 138 139 141 142 143 143 143 142 140 139 138 137 135 131 130 128 125 122 120 118 118 118 117 116 114 112 110 108 106 103 102 101 102 104 106 107 108 110 112 112 112 112 112 112 112 113
249 248 239 228 222 220 222 222 217 213 209 205 204 201 199 199 197 195 191 186 186 185 181 176 172 169 164 160 157 154 152 151 150 150 150 150 149 146 144 143 142 143 147 148 149 150 150 148 146 146 146 144 141 138 136 133 131 128 125 123 123 123 122 121 119 116 116 114 110 107 105 104 105 107 109 110 110 111 113 113 112 113 113 113 113
252 250 235 221 218 218 218 216 211 207 202 198 196 194 193 193 193 190 186 184 184 182 179 174 171 168 163 160 158 155 154 153 153 155 154 153 153 151 150 149 149 149 151 152 154 155 156 156 154 153 154 155 153 151 147 145 142 139 136 132 131 130 129 129 128 125 123 121 119 115 111 109 108 107 109 112 112 110 111 112 112 113 113 114 115
251 248 234 224 221 217 214 211 205 200 196 191 190 190 189 188 187 185 184 183 182 180 177 174 171 168 165 164 161 158 158 157 156 157 155 155 158 159 156 154 153 154 155 157 158 159 160 162 161 160 160 161 162 161 160 158 155 153 149 146 143 141 139 139 139 138 133 129 128 126 122 118 115 113 111 113 115 113 111 110 109 110 113 114 116
250 243 234 226 219 213 210 204 198 195 191 187 188 188 186 185 185 184 183 183 181 180 178 174 172 170 168 168 166 164 163 161 160 160 160 163 163 161 160 157 156 156 156 159 161 162 163 165 166 166 166 167 167 168 168 167 167 165 162 160 159 156 153 151 151 150 150 146 140 139 138 133 128 125 121 119 120 119 116 113 110 109 109 110 113
247 238 230 222 214 211 206 197 193 192 189 186 187 187 186 186 185 183 183 183 181 180 178 176 174 173 172 172 170 170 169 166 166 166 167 168 163 164 164 160 161 160 157 160 163 166 168 168 168 169 171 173 173 172 172 172 174 175 174 172 171 170 167 165 163 161 162 164 160 155 153 151 146 141 138 134 130 128 126 123 118 113 109 107 108
243 234 227 220 213 209 202 194 192 191 190 188 187 187 186 186 185 183 183 184 183 181 179 177 177 177 175 175 175 176 175 172 172 171 170 168 165 168 168 165 167 166 163 163 164 168 172 172 171 170 173 177 178 177 177 176 178 180 181 182 182 181 180 178 176 175 174 173 175 174 167 164 162 157 154 153 149 144 139 136 130 123 115 105 99
238 230 225 218 214 210 201 194 192 191 191 190 188 187 186 185 184 183 183 183 183 183 181 179 180 180 179 179 179 180 180 177 177 176 175 171 169 171 170 170 173 173 171 170 168 169 172 174 174 173 175 177 178 180 181 181 183 185 187 189 191 191 191 190 190 189 188 186 186 185 179 176 175 171 167 167 167 164 159 152 145 139 127 106 91
234 228 222 215 211 208 201 195 193 192 192 191 188 186 185 185 183 183 183 183 184 184 181 180 182 182 182 183 183 182 182 184 184 181 180 177 175 176 175 178 179 179 180 178 178 177 176 178 179 181 182 181 181 182 182 185 189 190 191 194 197 199 200 200 200 198 197 196 194 191 187 185 184 182 181 180 180 179 177 174 169 166 159 144 16
231 225 220 212 208 205 201 197 194 193 193 191 189 187 186 187 185 183 183 183 184 184 183 183 184 184 184 186 186 182 184 191 191 187 187 184 181 182 182 187 187 186 187 186 187 188 187 188 189 191 193 190 191 191 191 194 196 194 195 197 200 203 205 205 204 202 201 200 198 196 194 193 192 191 192 191 191 191 191 193 197 205 218 238 271
228 222 217 211 207 204 201 198 195 194 193 191 190 188 188 188 188 186 183 183 184 185 185 186 187 186 187 190 188 185 188 193 193 191 191 188 190 190 186 189 191 190 191 192 194 195 196 198 199 201 204 202 201 202 201 200 199 198 198 199 201 203 205 205 204 202 202 201 200 200 199 199 200 200 200 199 200 201 202 208 218 230 242 251 263
227 221 215 210 207 204 201 198 197 196 194 192 191 190 189 190 190 188 186 186 186 185 187 189 191 191 190 191 190 191 190 189 192 195 194 195 198 196 191 192 194 193 193 197 200 200 202 204 204 206 210 211 209 208 205 202 200 200 200 201 203 204 204 204 203 202 201 201 202 202 202 204 204 204 205 205 206 208 212 220 229 239 249 257 263
226 221 215 210 207 205 202 200 199 197 195 194 192 192 192 192 192 191 189 188 188 186 188 191 194 195 195 193 194 196 193 188 191 194 197 203 202 197 195 196 199 200 200 202 203 203 204 205 206 207 210 212 211 209 207 205 204 203 203 204 205 206 204 204 204 203 202 203 204 205 206 208 208 208 208 210 212 214 220 226 233 241 249 257 262
226 221 215 211 208 205 203 202 201 199 197 195 194 194 194 193 194 193 191 190 190 189 190 192 194 197 199 200 199 200 200 199 200 197 197 204 205 204 203 201 205 208 208 210 208 206 207 207 207 207 208 209 209 208 207 208 210 210 209 207 206 207 206 205 205 206 206 205 206 207 208 210 211 211 212 214 218 221 226 231 236 244 252 258 263
225 221 216 211 208 205 203 203 202 200 198 197 196 195 195 195 195 195 194 193 192 192 193 193 195 198 200 203 204 205 206 208 211 209 206 207 208 211 209 205 210 216 216 218 215 211 211 209 209 209 208 206 207 207 208 211 213 214 213 210 208 208 207 207 208 208 209 208 208 209 211 213 215 216 217 220 224 228 232 236 240 247 254 260 265
223 221 218 213 208 206 204 203 202 201 200 199 198 197 197 196 196 196 196 196 196 196 196 196 197 199 200 204 207 208 209 210 213 215 216 216 216 218 216 212 218 222 221 221 219 216 214 212 211 211 210 208 207 209 211 213 214 216 216 211 209 210 209 209 211 211 211 211 211 212 214 215 217 219 221 224 228 232 235 239 243 248 254 260 265
223 222 219 215 209 206 204 203 203 203 202 201 200 199 198 199 198 198 198 198 200 201 200 200 202 203 202 204 208 211 212 213 215 217 219 219 220 224 226 225 227 227 224 223 221 217 216 215 213 213 212 211 211 213 214 216 217 218 215 210 210 212 213 212 213 214 214 213 213 214 215 216 218 219 222 225 229 233 236 240 245 250 254 258 263
223 221 219 216 211 206 204 203 203 204 204 203 202 201 201 201 201 200 200 201 203 204 205 205 206 208 208 207 209 213 215 216 218 220 222 223 224 227 230 232 232 231 227 223 222 221 220 219 218 217 217 216 217 218 218 219 220 219 214 212 213 214 215 216 216 216 216 216 217 218 218 219 220 221 223 227 231 234 239 242 246 251 254 258 261
224 221 218 215 210 205 203 203 204 205 205 205 204 203 203 203 203 203 203 204 205 207 209 210 210 211 213 213 214 217 219 219 220 223 224 225 227 230 233 235 235 233 228 224 225 225 224 223 223 223 222 222 222 222 222 224 224 221 219 218 218 217 218 219 219 219 219 220 221 222 223 223 225 226 228 231 234 237 240 244 248 252 255 258 262
223 220 217 213 209 205 204 204 205 206 207 206 206 205 205 205 206 206 206 207 208 210 212 213 214 214 216 217 218 221 223 223 223 225 227 227 228 231 235 237 237 235 232 229 229 228 226 226 227 227 227 226 226 225 226 228 227 224 224 223 221 221 222 222 222 222 222 223 224 225 225 225 226 228 230 233 236 239 242 246 250 255 258 262 265
225 221 217 213 209 206 206 206 207 207 208 208 208 208 207 207 208 208 208 210 211 213 215 216 217 218 219 220 221 223 225 226 226 227 229 230 230 232 235 237 237 236 235 232 232 230 229 229 228 229 230 228 228 229 229 231 228 225 227 228 226 225 225 225 225 225 225 225 225 224 225 225 227 230 232 235 238 241 245 249 253 258 262 266 268
232 225 219 213 209 207 207 208 209 209 209 209 210 211 210 210 211 210 210 212 213 215 217 219 220 220 221 223 224 226 227 228 228 228 230 232 233 234 236 237 237 238 237 234 233 231 231 233 231 231 232 230 230 231 232 232 228 226 228 229 229 228 228 227 226 226 226 226 226 226 226 227 230 233 235 239 243 246 249 252 255 259 263 266 268
240 234 224 216 211 209 208 209 210 211 211 211 212 213 213 213 213 213 213 214 215 217 218 220 222 223 224 225 227 229 230 231 231 231 231 233 234 235 237 238 238 238 238 237 235 233 232 233 235 235 234 233 232 232 234 234 229 227 229 230 230 229 228 228 227 227 227 227 228 228 230 232 235 237 240 242 245 249 252 254 257 260 264 267 270
241 237 227 218 214 212 211 211 212 213 213 214 214 215 216 216 215 216 216 217 218 219 220 221 223 225 226 227 229 231 233 233 233 233 234 234 235 236 237 239 239 238 239 239 237 237 237 236 237 237 234 234 233 232 234 234 230 230 232 231 232 232 230 229 229 229 229 229 230 231 233 235 237 240 242 244 247 251 254 258 260 263 267 270 272
239 237 231 222 217 214 214 213 213 215 215 215 216 217 218 219 218 218 219 219 220 221 222 223 224 226 228 229 231 233 234 235 235 236 236 236 236 237 238 239 239 239 239 241 241 241 242 242 240 237 234 235 234 232 234 234 231 231 233 232 234 234 231 231 231 231 232 232 232 234 235 237 239 241 244 247 251 254 257 260 264 267 270 272 274
237 237 235 231 224 217 215 215 215 216 217 217 217 218 219 220 220 221 221 221 222 223 224 225 226 228 229 231 232 233 235 236 237 238 238 238 238 239 239 240 240 240 240 242 243 242 242 244 244 241 237 236 235 234 234 233 231 232 234 234 235 233 233 234 233 232 234 234 235 237 238 239 242 245 248 251 254 256 259 262 266 269 272 274 276
236 236 233 231 228 221 216 215 216 217 218 218 218 219 220 221 222 223 224 224 225 226 226 227 228 230 231 232 233 234 235 236 238 239 239 240 240 241 241 241 241 241 241 242 244 244 244 244 246 246 242 237 236 237 236 234 233 234 236 236 235 235 237 239 237 235 236 236 237 240 241 243 245 248 251 254 256 259 261 264 267 271 273 275 276
236 234 232 230 229 224 217 215 217 218 219 220 220 220 221 222 223 225 226 227 228 228 229 230 230 232 232 234 235 235 236 237 238 239 240 241 242 242 242 243 242 242 242 242 243 245 246 244 245 248 246 242 239 237 237 237 235 235 237 237 237 238 240 241 240 239 238 237 240 242 244 246 248 251 254 256 259 261 263 266 269 272 274 276 277
236 234 233 231 230 226 219 218 219 219 220 221 222 222 223 224 225 226 228 229 230 231 231 232 233 233 234 235 236 236 237 238 239 240 241 241 242 243 243 243 243 243 243 242 243 244 246 245 245 247 248 246 242 239 238 239 238 237 237 237 238 239 240 241 242 242 240 240 242 244 246 249 251 254 256 258 261 263 265 268 271 274 276 277 278
236 235 234 233 233 231 226 223 222 221 222 223 223 223 224 225 226 227 228 230 231 232 233 234 235 235 236 237 237 238 238 238 240 241 242 242 242 243 244 244 244 244 243 243 243 244 245 246 246 247 248 247 244 241 240 240 240 239 238 239 240 240 240 241 244 243 241 242 244 244 247 250 252 255 258 260 262 264 266 269 272 274 276 277 279
236 235 234 233 233 232 228 226 225 224 225 225 225 226 226 227 228 229 230 231 232 234 235 236 236 237 238 238 239 239 239 240 241 242 243 243 243 243 244 244 245 245 245 244 243 243 245 246 247 247 248 248 246 244 242 241 241 240 240 242 243 243 242 242 245 246 243 243 245 245 248 251 253 256 259 261 264 265 267 270 272 275 277 278 279
237 235 234 234 234 233 230 229 227 227 227 228 228 228 229 230 231 231 232 233 234 235 237 238 238 238 239 240 240 241 241 241 241 242 243 244 244 244 244 245 245 245 245 246 245 245 245 246 247 248 248 248 247 246 244 243 242 243 243 243 244 245 244 243 246 247 245 245 248 248 249 252 254 257 260 262 265 266 269 271 273 275 277 278 279
240 237 236 235 236 235 233 231 229 229 230 230 231 231 232 232 233 234 234 235 236 237 238 239 240 240 241 241 242 242 242 243 243 243 243 244 245 245 245 245 245 246 246 246 246 246 246 246 247 248 248 248 248 247 246 246 245 245 246 245 244 245 246 245 247 249 247 249 251 251 252 254 255 258 260 263 265 267 269 271 273 275 277 278 280
243 241 239 238 237 237 236 235 233 232 232 233 233 234 234 234 235 236 236 237 238 239 240 240 241 242 243 243 243 243 243 244 244 244 244 245 246 246 246 246 246 246 247 247 247 247 247 248 248 248 248 248 248 248 247 246 246 246 247 247 245 245 247 247 248 250 251 253 253 253 254 256 258 259 260 262 264 266 268 270 272 274 277 279 281
247 244 243 242 241 240 239 238 236 235 235 235 235 235 236 237 237 238 239 239 240 241 242 242 243 243 244 244 244 244 244 245 245 246 246 246 247 247 247 247 247 246 247 247 247 248 248 249 248 248 248 247 247 248 247 246 246 247 248 249 248 247 247 248 249 251 252 254 255 256 257 257 258 260 261 263 264 265 267 270 272 274 277 279 282
252 249 247 245 243 242 241 240 239 238 238 238 238 238 238 238 239 240 241 241 242 242 243 244 244 245 245 245 245 246 246 246 246 247 247 247 248 248 248 248 247 247 247 247 248 248 248 249 249 249 248 248 247 247 247 247 248 248 248 249 250 250 250 250 251 251 252 253 255 257 259 259 259 260 262 264 265 266 268 270 272 275 277 279 282
254 252 250 248 245 244 243 242 240 240 240 241 240 240 240 240 240 241 242 242 243 243 245 246 246 246 246 247 247 247 248 248 248 248 249 249 249 249 249 249 248 248 247 247 247 248 248 248 249 249 249 249 248 247 247 247 248 248 249 249 250 251 250 252 253 252 252 253 255 257 259 259 259 261 262 265 267 268 269 271 273 275 278 280 283
255 252 251 249 247 245 244 243 242 242 243 243 241 241 241 242 242 242 243 244 244 245 246 247 248 248 249 249 249 249 249 250 250 250 251 251 251 250 251 250 250 249 249 248 248 248 248 249 249 249 249 249 249 248 248 248 248 249 249 250 251 250 250 251 253 253 252 255 256 257 257 258 260 262 263 266 268 269 270 273 274 275 278 281 284
255 252 251 249 248 247 246 245 244 244 245 245 243 242 243 242 243 244 244 245 246 247 248 248 249 250 251 251 250 250 250 251 252 252 252 252 252 251 251 251 251 250 250 250 250 249 249 249 250 249 249 249 249 249 248 248 248 249 249 250 251 251 251 252 253 253 254 255 256 256 258 259 260 262 264 266 268 269 271 274 274 276 279 282 284
256 253 251 249 248 247 247 247 246 246 247 246 244 243 243 243 243 244 245 247 247 248 249 249 250 250 251 252 252 252 252 252 253 253 254 254 253 253 252 252 251 251 250 250 250 250 250 250 250 250 249 249 249 249 249 248 248 248 250 251 250 250 251 252 253 254 255 254 254 257 260 260 261 263 265 267 268 269 272 274 275 277 280 282 283
257 254 252 250 249 248 247 247 247 247 248 247 245 244 243 243 242 243 246 248 248 249 249 250 251 251 252 253 253 254 254 254 254 254 254 255 255 254 254 253 253 252 251 251 250 250 250 250 250 250 250 250 250 249 249 248 248 248 249 250 249 249 251 252 253 254 255 255 256 259 261 261 262 264 266 268 269 270 272 274 275 277 280 281 283
257 255 253 251 250 249 248 247 247 247 247 246 245 243 243 243 243 244 247 248 249 251 251 252 252 253 253 254 254 255 255 255 255 255 255 256 256 255 255 255 254 254 253 253 252 251 250 250 250 250 250 250 250 250 249 249 249 249 249 249 251 251 252 253 253 254 255 257 258 259 261 262 263 265 266 268 270 271 273 274 275 276 279 281 283
256 255 254 253 251 250 249 248 247 248 247 246 245 244 244 244 244 246 248 250 251 252 253 253 254 254 255 255 255 256 256 256 257 257 257 257 258 257 257 257 256 256 256 255 253 253 252 251 250 250 250 250 249 249 249 248 248 249 249 250 251 252 252 253 253 254 255 256 257 258 260 262 263 265 267 268 270 272 274 275 274 275 277 280 283
255 254 254 254 253 251 250 249 249 249 249 247 245 246 246 245 246 248 249 251 252 253 254 255 255 256 256 256 257 257 258 258 258 258 258 259 259 260 260 259 259 259 258 257 255 254 253 252 251 250 250 249 249 249 248 248 248 248 249 249 250 250 250 252 253 254 255 256 257 257 258 261 263 264 266 268 269 271 273 275 275 275 277 280 283
254 254 254 254 254 253 252 251 250 250 251 248 246 247 247 247 248 250 251 253 254 255 256 257 257 258 258 258 258 259 259 260 260 260 260 260 260 261 261 261 261 260 259 259 257 256 254 253 252 251 250 249 249 248 248 247 247 247 247 248 249 249 250 251 253 254 254 255 256 256 257 260 263 263 265 267 269 271 272 274 275 276 277 280 282
254 254 255 254 254 254 253 253 253 252 252 251 249 248 249 248 249 251 252 254 255 256 258 258 259 259 260 260 260 260 261 262 262 262 262 262 262 262 263 264 263 262 261 260 258 257 255 253 252 251 250 249 248 248 247 246 246 246 247 248 248 249 249 250 251 252 253 255 255 254 255 259 261 263 265 267 269 271 272 273 274 275 278 280 282